DW6198 Weather Reports


time (UTC)temp
C
wind
direction
speed
KPH
gust
KPH
rain 1hr
cm
rain 24hr
cm
rain mn
cm
humidity
%
barometer
mb
20260508013027 7 76 0.0 0.0 0.00 0.00 0.00 93 1015.5
20260508011530 7 76 0.0 0.0 0.00 0.00 0.00 93 1015.4
20260508010029 7 76 0.0 0.0 0.00 0.00 0.00 93 1015.4
20260508004534 7 76 0.0 0.0 0.00 0.00 0.00 93 1015.3
20260508003021 7 76 0.0 0.0 0.00 0.00 0.00 93 1015.3
20260508001527 8 76 0.0 0.0 0.00 0.00 0.00 93 1015.1
20260508000019 8 76 0.0 0.0 0.00 0.00 0.00 93 1015.2
20260507234531 8 76 0.0 0.0 0.00 0.00 0.00 93 1015.3
20260507233026 8 76 0.0 0.0 0.00 0.00 0.00 92 1015.4
20260507231522 8 76 0.0 0.0 0.00 0.00 0.00 92 1015.5
20260507230021 8 76 0.0 1.6 0.00 0.00 0.00 92 1015.5
20260507224523 8 76 0.0 0.0 0.00 0.00 0.00 92 1015.4
20260507223019 8 76 0.0 0.0 0.00 0.00 0.00 92 1015.3
20260507221519 8 76 0.0 0.0 0.00 0.00 0.00 92 1015.3
20260507220014 8 76 0.0 0.0 0.00 0.00 0.00 92 1015.4
20260507214520 8 76 0.0 0.0 0.00 0.00 0.00 92 1015.3
20260507213011 8 76 0.0 1.6 0.00 0.00 0.00 92 1015.2
20260507211510 7 76 0.0 1.6 0.00 0.00 0.00 91 1015.0
20260507210007 7 76 0.0 0.0 0.00 0.00 0.00 89 1014.9
20260507204505 8 76 0.0 0.0 0.00 0.00 0.00 89 1014.7
20260507203006 8 76 0.0 0.0 0.00 0.00 0.00 88 1014.6
20260507201600 8 76 0.0 0.0 0.00 0.00 0.00 87 1014.3
20260507200056 9 75 0.0 3.2 0.00 0.00 0.00 84 1014.0
20260507194554 10 143 0.0 0.0 0.00 0.00 0.00 83 1013.7
20260507193058 10 143 0.0 0.0 0.00 0.00 0.00 82 1013.7
20260507191554 10 143 0.0 0.0 0.00 0.00 0.00 79 1013.7
20260507190052 11 143 0.0 0.0 0.00 0.00 0.00 79 1013.4
20260507184550 11 143 0.0 0.0 0.00 0.00 0.00 78 1013.3
20260507183048 11 143 0.0 0.0 0.00 0.00 0.00 76 1013.1
20260507181547 12 143 0.0 0.0 0.00 0.00 0.00 75 1013.0
20260507180049 12 143 0.0 0.0 0.00 0.00 0.00 74 1012.9
20260507174604 12 143 0.0 0.0 0.00 0.00 0.00 73 1012.7
20260507173043 13 143 0.0 0.0 0.00 0.00 0.00 71 1012.6
20260507171559 13 147 0.0 0.0 0.00 0.00 0.00 70 1012.5
20260507170040 14 122 0.0 1.6 0.00 0.00 0.00 68 1012.4
20260507164539 15 146 0.0 1.6 0.00 0.00 0.00 66 1012.2
20260507163037 15 81 0.0 3.2 0.00 0.00 0.00 65 1012.1
20260507161539 15 103 0.0 1.6 0.00 0.00 0.00 63 1011.9
20260507160057 15 99 0.0 0.0 0.00 0.00 0.00 63 1011.8
20260507154536 16 99 0.0 1.6 0.00 0.00 0.00 61 1011.6
20260507153033 16 97 0.0 3.2 0.00 0.00 0.00 59 1011.6
20260507151533 16 97 0.0 3.2 0.00 0.00 0.00 58 1011.7
20260507150037 16 63 1.6 4.8 0.00 0.00 0.00 54 1011.5
20260507144531 16 85 3.2 6.4 0.00 0.00 0.00 55 1011.5
20260507143031 16 134 0.0 1.6 0.00 0.00 0.00 57 1011.5
20260507141533 16 162 0.0 3.2 0.00 0.00 0.00 59 1011.5
20260507140040 16 316 0.0 3.2 0.00 0.00 0.00 59 1011.5
20260507134530 16 84 0.0 8.0 0.00 0.00 0.00 59 1011.5
20260507133032 17 342 3.2 9.7 0.00 0.00 0.00 56 1011.5
20260507131551 17 313 0.0 8.0 0.00 0.00 0.00 57 1011.5
20260507130027 16 60 1.6 8.0 0.00 0.00 0.00 60 1011.8
20260507124527 16 73 1.6 8.0 0.00 0.00 0.00 59 1011.8
20260507123030 17 86 0.0 6.4 0.00 0.00 0.00 59 1011.6
20260507121524 16 59 1.6 11.3 0.00 0.00 0.00 59 1011.5
20260507120030 17 24 1.6 9.7 0.00 0.00 0.00 59 1011.6
20260507114522 17 78 0.0 6.4 0.00 0.00 0.00 62 1011.8
20260507113054 17 75 3.2 8.0 0.00 0.00 0.00 60 1011.8
20260507111518 17 73 1.6 6.4 0.00 0.00 0.00 65 1011.7
20260507110016 15 84 0.0 4.8 0.00 0.00 0.00 68 1011.7
20260507104518 15 77 0.0 6.4 0.00 0.00 0.00 70 1011.6
20260507103013 15 189 0.0 4.8 0.00 0.00 0.00 70 1011.5
20260507101520 15 122 0.0 3.2 0.00 0.00 0.00 71 1011.7
20260507100027 14 89 0.0 4.8 0.00 0.00 0.00 73 1011.5
20260507094508 15 84 0.0 4.8 0.00 0.00 0.00 71 1011.3
20260507093005 13 86 0.0 3.2 0.00 0.00 0.00 77 1011.2
20260507091503 14 86 0.0 6.4 0.00 0.00 0.00 78 1011.1
20260507090006 13 64 1.6 6.4 0.00 0.00 0.00 77 1011.0
20260507084603 14 45 1.6 4.8 0.00 0.00 0.00 77 1010.8
20260507083059 13 70 0.0 6.4 0.00 0.00 0.00 82 1010.8
20260507081559 12 84 0.0 6.4 0.00 0.00 0.00 83 1010.7
20260507080058 12 86 0.0 4.8 0.00 0.00 0.00 88 1010.8
20260507074556 11 81 0.0 6.4 0.00 0.00 0.00 90 1010.7
20260507073058 10 115 0.0 1.6 0.00 0.00 0.00 91 1010.5
20260507071553 10 75 0.0 3.2 0.00 0.00 0.00 93 1010.4
20260507070105 10 138 0.0 1.6 0.00 0.00 0.00 93 1010.1
20260507064553 10 77 0.0 3.2 0.00 0.00 0.00 93 1010.0
20260507063054 10 77 0.0 1.6 0.00 0.00 0.00 93 1010.0
20260507061548 10 83 0.0 3.2 0.00 0.00 0.00 93 1009.9
20260507060048 10 84 0.0 3.2 0.00 0.00 0.00 93 1009.7
20260507054545 10 84 0.0 1.6 0.00 0.00 0.00 93 1009.5
20260507053044 10 84 0.0 0.0 0.00 0.00 0.00 93 1009.3
20260507051542 10 84 0.0 0.0 0.00 0.00 0.00 94 1009.2
20260507044549 10 83 0.0 0.0 0.00 0.00 0.00 94 1008.8
20260507043037 10 83 0.0 0.0 0.00 0.00 0.00 94 1008.5
20260507041534 9 84 0.0 0.0 0.00 0.00 0.00 93 1008.1
20260507040033 9 83 0.0 0.0 0.00 0.00 0.00 93 1007.8
20260507034536 9 83 0.0 0.0 0.00 0.00 0.00 92 1007.7
20260507033036 10 83 0.0 0.0 0.00 0.00 0.00 92 1007.7
20260507031531 10 83 0.0 0.0 0.00 0.00 0.00 91 1007.6
20260507030026 10 83 0.0 0.0 0.00 0.00 0.00 91 1007.5
20260507024521 10 83 0.0 0.0 0.00 0.00 0.00 90 1007.3
20260507023019 11 83 0.0 0.0 0.00 0.00 0.00 89 1007.2
20260507021526 11 83 0.0 1.6 0.00 0.00 0.00 87 1007.3
20260507020021 11 83 0.0 1.6 0.00 0.00 0.00 86 1006.9
20260507014512 12 83 0.0 1.6 0.00 0.00 0.00 85 1007.0